547  
ASUS44 KSJT 291658  
RWRSJT  
WEST CENTRAL TEXAS REGIONAL WEATHER ROUNDUP  
NATIONAL WEATHER SERVICE SAN ANGELO TX  
1200 PM CDT WED MAR 29 2017  
 
NOTE: "FAIR" INDICATES FEW OR NO CLOUDS BELOW 12,000 FEET WITH NO  
SIGNIFICANT WEATHER AND/OR S TO VISIBILITY
.  
 
TXZ049-054-064>066-071>073-076>078-098-099-113-114-127-128-139-140-  
154-155-168>170-291800   
..LOCATIONS ACROSS WEST CENTRAL TEXAS
 
 
 
CITY SKY/WX TMP DP RH WIND PRES REMARKS
 
SAN ANGELO SUNNY 69 41 36 W18 29.80R  
ABILENE SUNNY 66 49 54 W18 29.76R  
DYESS AFB NOT AVBL  
JUNCTION SUNNY 72 43 35 W14G22 29.82S  
SWEETWATER NOT AVBL  
BROWNWOOD NOT AVBL  
COLEMAN NOT AVBL  
SONORA NOT AVBL  
OZONA NOT AVBL  
BRADY NOT AVBL  

 
 
TEXAS PANHANDLE/OKLAHOMA PANHANDLE  
 
CITY SKY/WX TMP DP RH WIND PRES REMARKS
 
AMARILLO LGT RAIN 40 39 97 N20G32 29.87R WCI 30  
BORGER LGT RAIN 43 40 89 N18G30 29.88R WCI 35  
CANADIAN NOT AVBL  
DALHART LGT RAIN 43 39 86 N24G43 29.91R WCI 33  
DUMAS NOT AVBL  
GUYMON NOT AVBL  
HEREFORD NOT AVBL  
PAMPA NOT AVBL  
PERRYTON NOT AVBL  

 
 
SOUTHERN PANHANDLE/SOUTH PLAINS/ROLLING PLAINS  
 
CITY SKY/WX TMP DP RH WIND PRES REMARKS
 
LUBBOCK LGT RAIN 46 42 86 N26G36 29.80R FOG WCI 37  
SNYDER NOT AVBL  
CHILDRESS LGT RAIN 52 49 89 N26G32 29.76R  
SEMINOLE NOT AVBL  

 
 
PERMIAN BASIN  
 
CITY SKY/WX TMP DP RH WIND PRES REMARKS
 
MIDLAND MOSUNNY 61 41 47 NW23G31 29.86R  
ODESSA PTSUNNY 61 40 45 NW18G30 29.87R  
WINK N/A 62 39 42 MISG 29.89R  

 
 
FAR WEST/SOUTHWEST MOUNTAINS/TRANS PECOS  
 
CITY SKY/WX TMP DP RH WIND PRES REMARKS
 
ALPINE NOT AVBL  
DRYDEN NOT AVBL  
EL PASO MOSUNNY 56 36 47 NE7 29.97R  
FORT STOCKTON PTSUNNY 65 35 33 NW25G37 29.90R  
GUADALUPE PASS NOT AVBL  
MARFA NOT AVBL  
PECOS NOT AVBL  

 
 
DALLAS/FORT WORTH METROPLEX  
 
CITY SKY/WX TMP DP RH WIND PRES REMARKS
 
DFW AIRPORT MOSUNNY 75 53 46 SW21G26 29.72R  
FTW MEACHAM SUNNY 73 52 47 S17G24 29.73R  
DAL-EXECUTIVE SUNNY 73 58 59 S8 29.75R  
GRAND PRAIRIE NOT AVBL  
ADDISON NOT AVBL  
MESQUITE SUNNY 72 57 60 S17G26 29.77R  
LANCASTER NOT AVBL  

 
 
NORTH CENTRAL TEXAS  
 
CITY SKY/WX TMP DP RH WIND PRES REMARKS
 
SHRMAN/DENISON NOT AVBL  
GAINESVILLE NOT AVBL  
BRIDGEPORT NOT AVBL  
DENTON SUNNY 72 55 55 SW18G25 29.72R  
WAXAHACHIE NOT AVBL  
GRANBURY NOT AVBL  

 
 
WESTERN NORTH TEXAS  
 
CITY SKY/WX TMP DP RH WIND PRES REMARKS
 
WICHITA FALLS PTSUNNY 67 51 56 SW20G29 29.68R  
VERNON NOT AVBL  
BRECKENRIDGE NOT AVBL  
COMANCHE NOT AVBL  

 
 
CENTRAL AND SOUTH CENTRAL TEXAS  
 
CITY SKY/WX TMP DP RH WIND PRES REMARKS
 
AUSTIN/BERGSTM MOSUNNY 74 60 61 S5 29.81S  
WACO SUNNY 73 60 63 S14 29.78S  
HILLSBORO NOT AVBL  
TEMPLE SUNNY 74 63 68 S9 29.80S  
KILLEEN-GRAY NOT AVBL  
FORT HOOD NOT AVBL  
GEORGETOWN SUNNY 72 57 60 S5 29.80S  
LAGO VISTA NOT AVBL  
SAN MARCOS SUNNY 72 61 68 CALM 29.83F  
NEW BRAUNFELS SUNNY 74 60 61 VRB3 29.81S  
RANDOLPH AFB NOT AVBL  
SAN ANTONIO MOSUNNY 71 58 63 SE3 29.83S  
STINSON SUNNY 74 59 59 CALM 29.81S  
PLEASANTON NOT AVBL  
LA GRANGE NOT AVBL  
GIDDINGS NOT AVBL  

 
 
EAST TEXAS  
 
CITY SKY/WX TMP DP RH WIND PRES REMARKS
 
PARIS NOT AVBL  
CLARKSVILLE NOT AVBL  
TYLER CLOUDY 72 63 73 S12 29.77F  
LONGVIEW CLOUDY 68 63 84 SW6 29.80R  
PALESTINE NOT AVBL  
NACOGDOCHES NOT AVBL  

 
 
TEXAS HILL COUNTRY AND EDWARDS PLATEAU  
 
CITY SKY/WX TMP DP RH WIND PRES REMARKS
 
LLANO NOT AVBL  
HORSESHOE BAY NOT AVBL  
KERRVILLE NOT AVBL  
FREDERICKSBRG NOT AVBL  
ROCKSPRINGS NOT AVBL  
HONDO SUNNY 78 52 40 VRB7 29.83S  
UVALDE NOT AVBL  
DEL RIO SUNNY 77 40 26 W12 29.82S  

 
 
SOUTHEAST TEXAS  
 
CITY SKY/WX TMP DP RH WIND PRES REMARKS
 
COLLEGE STN PTSUNNY 73 66 78 S13 29.80R  
CALDWELL NOT AVBL  
CROCKETT NOT AVBL  
BRENHAM NOT AVBL  
HUNTSVILLE CLOUDY 70 65 84 S6 29.82R  
CONROE PTSUNNY 67 64 90 SE6 29.81R  
HOUSTON BUSH CLOUDY 70 67 90 SE15G23 29.81S THUNDER  
HOUSTON HOBBY LGT RAIN 69 67 93 E12G17 29.77F  
PERLAND LGT RAIN 76 70 82 SE7 29.83R  
WHARTON NOT AVBL  

 
 
THE UPPER TEXAS COAST  
 
CITY SKY/WX TMP DP RH WIND PRES REMARKS
 
ORANGE NOT AVBL  
PORT ARTHUR CLOUDY 78 67 68 SE15G23 29.87R  
GALVESTON CLOUDY 77 71 82 E17 29.83F HAZE  
ANGLETON LGT RAIN 75 70 84 E8 29.81S  
BAY CITY NOT AVBL  

 
 
TEXAS COASTAL BEND, RIO GRANDE PLAINS DEEP SOUTH TEXAS  
 
CITY SKY/WX TMP DP RH WIND PRES REMARKS
 
VICTORIA PTSUNNY 74 62 66 VRB3 29.81R  
BEEVILLE NOT AVBL  
ROCKPORT CLOUDY 75 61 61 CALM 29.80R  
PORT ARANSAS NOT AVBL  
PORT LAVACA NOT AVBL  
CORPUS CHRISTI PTSUNNY 81 61 50 NE8 29.80R  
KINGSVILLE NAS NOT AVBL  
COTULLA SUNNY 80 44 27 MISG 29.83S  
LAREDO NOT AVBL  
BROWNSVILLE CLOUDY 82 72 71 SW7 29.77S  
PORT ISABEL PTSUNNY 84 72 67 S13 29.76S HAZE  
HEBBRONVILLE NOT AVBL  
MCALLEN PTSUNNY 89 71 55 N12 29.78R  
WESLACO NOT AVBL  
FALFURRIAS NOT AVBL  
EDINBURG NOT AVBL  

 
 
 
CLICK HERE TO GO TO PREVIOUS BULLETINS.

The Nexlab TX Page Main Text Page